OPS 4682 DEB, 51494

Orbit data source: Space-Track

OPS 4682 DEB, 51494 is space debris in LEO originally from a launch on Sat, 03 Apr 1965 UTC launched from the Air Force Western Test Range (AFWTR). Debris objects in space refer to the collection of defunct objects orbiting the Earth. Examples of debris include non-operational satellites, rocket bodies, and fragments generated from explosions, collisions, or faulty payload assembly.

Loading next visibility...
Identifier
51494, 1965-027GE
Orbit
LEO
Country
Flag of USUS
Related business
Manufacturer
Unknown
Mission
Spacecraft
Bus & Motor
Unknown
Mass
Unknown
Launch date (UTC)
1965-04-03 (61 years ago)
Launch vehicle
Unknown
Launch site
Air Force Western Test Range (AFWTR)
Object type
Payload
Rocket body
Debris
Shape & HBR
Unknown shape, 1.1 m
Radar Cross Section
Medium (>0.1 m² and <1 m²)

Expand to show TLE details & history
Last TLE update: 2 days ago

TLE from 2 days ago
0 OPS 4682 DEB
1 51494U 65027GE  26262.10786506  .00000538  00000-0  18469-2 0  9990
2 51494  90.2510  11.1536 0031543 243.6814 293.3609 12.96612044709556
Epoch: 2026-09-19T02:35Z
TLE epoch observation values (Epoch: 2026-09-19T02:35:19.541Z)
Latitude
3.19653°
Longitude
154.31499°
Altitude
1,268.401 km
Speed
7.226 km/s
True Right ascension
12h 44m 40s
True Declination
3° 10' 43"
Sunlit
Object was in daylight at epoch
Visualization orbit readout
Latitude
Unknown
Longitude
Unknown
Altitude
Unknown
Speed
Unknown
Apparent Right ascension
Unknown
Apparent Declination
Unknown
Sunlit
N/A
Visualization observer readout
Local Sidereal Time
09:48:11
Azimuth
Unknown
Elevation
Unknown
Doppler factor
Unknown
Orbital elements
Apogee altitude
1,296.654 km
Perigee altitude
1,248.389 km
Semi-major axis
7,650.659 km
Eccentricity
0.00315
Inclination
90.251°
RAAN
11.1536°
Arg. of periapsis
243.6814°
True anomaly
293.02856°
Mean anomaly
293.3609°
Eccentric anomaly
293.19478°
Mean motion
3.24336 °/min
Orbital period
111 mins
BSTAR
0.0018469
Loading maneuver chart data...
Computing Atmospheric mass density...
Loading historical data...
Loading historical data...
Loading historical data...
Loading historical data...
Loading historical data...
Loading historical data...
Loading historical data...

Documentation

Showing up to 5 results
|